• In Belarus
  • List of Countries
  • For 7 days
  • Water Temperature
  • Weather Map
  • Weather Widgets
  • user-avatar
    Login

    Hourly Weather Uida

    Today, 26 January, Sunday

    Time Temperature Precipitation Wind Pressure Humidity
    00:00 +24°C° 0 mm 1 mps 757 mmHg 54%
    01:00 +24°C° 0 mm 2 mps 757 mmHg 50%
    02:00 +23°C° 0 mm 2 mps 756 mmHg 47%
    03:00 +23°C° 0 mm 2 mps 756 mmHg 44%
    04:00 +21°C° 0 mm 2 mps 757 mmHg 42%
    05:00 +21°C° 0 mm 2 mps 757 mmHg 40%
    06:00 +21°C° 0 mm 2 mps 758 mmHg 47%
    07:00 +25°C° 0 mm 2 mps 758 mmHg 39%
    08:00 +27°C° 0 mm 2 mps 758 mmHg 30%
    09:00 +30°C° 0 mm 2 mps 759 mmHg 21%
    10:00 +34°C° 0 mm 2 mps 758 mmHg 18%
    11:00 +36°C° 0 mm 3 mps 758 mmHg 14%
    12:00 +38°C° 0 mm 3 mps 757 mmHg 10%
    13:00 +38°C° 0 mm 3 mps 756 mmHg 11%
    14:00 +39°C° 0 mm 3 mps 756 mmHg 11%
    15:00 +40°C° 0 mm 4 mps 755 mmHg 12%
    16:00 +36°C° 0 mm 4 mps 755 mmHg 21%
    17:00 +32°C° 0 mm 4 mps 755 mmHg 31%
    18:00 +28°C° 0 mm 4 mps 755 mmHg 41%
    19:00 +28°C° 0 mm 4 mps 756 mmHg 47%
    20:00 +27°C° 0 mm 4 mps 757 mmHg 54%
    21:00 +26°C° 0 mm 4 mps 757 mmHg 60%
    22:00 +26°C° 0 mm 3 mps 757 mmHg 64%
    23:00 +25°C° 0 mm 3 mps 757 mmHg 67%

    Tomorrow, 27 January, Monday

    Time Temperature Precipitation Wind Pressure Humidity
    00:00 +25°C° 0 mm 3 mps 757 mmHg 70%
    01:00 +24°C° 0 mm 2 mps 757 mmHg 72%
    02:00 +23°C° 0 mm 2 mps 756 mmHg 74%
    03:00 +23°C° 0 mm 2 mps 756 mmHg 76%
    04:00 +21°C° 0 mm 2 mps 756 mmHg 77%
    05:00 +21°C° 0 mm 2 mps 756 mmHg 77%
    06:00 +21°C° 0 mm 2 mps 757 mmHg 78%
    07:00 +25°C° 0 mm 1 mps 757 mmHg 67%
    08:00 +28°C° 0 mm 1 mps 758 mmHg 57%
    09:00 +31°C° 0 mm 1 mps 759 mmHg 47%
    10:00 +35°C° 0 mm 2 mps 758 mmHg 38%
    11:00 +38°C° 0 mm 2 mps 758 mmHg 29%
    12:00 +41°C° 0 mm 2 mps 757 mmHg 20%
    13:00 +39°C° 0 mm 3 mps 756 mmHg 25%
    14:00 +38°C° 0 mm 4 mps 755 mmHg 29%
    15:00 +36°C° 0 mm 5 mps 755 mmHg 34%
    16:00 +34°C° 0 mm 5 mps 755 mmHg 44%
    17:00 +32°C° 0 mm 5 mps 755 mmHg 53%
    18:00 +29°C° 0 mm 5 mps 755 mmHg 62%
    19:00 +28°C° 0 mm 5 mps 755 mmHg 66%
    20:00 +28°C° 0 mm 5 mps 756 mmHg 69%
    21:00 +27°C° 0 mm 5 mps 757 mmHg 73%
    22:00 +27°C° 0 mm 4 mps 757 mmHg 75%
    23:00 +26°C° 0 mm 4 mps 757 mmHg 78%

    Day after tomorrow, 28 January, Tuesday

    Time Temperature Precipitation Wind Pressure Humidity
    00:00 +26°C° 0 mm 4 mps 757 mmHg 80%
    01:00 +26°C° 0 mm 4 mps 757 mmHg 82%
    02:00 +26°C° 0 mm 4 mps 756 mmHg 83%
    03:00 +25°C° 0 mm 4 mps 756 mmHg 85%
    04:00 +25°C° 0 mm 3 mps 756 mmHg 86%
    05:00 +25°C° 0 mm 3 mps 757 mmHg 87%
    06:00 +25°C° 0 mm 3 mps 757 mmHg 88%
    07:00 +27°C° 0 mm 3 mps 758 mmHg 79%
    08:00 +29°C° 0 mm 3 mps 758 mmHg 69%
    09:00 +31°C° 0 mm 3 mps 759 mmHg 59%
    10:00 +34°C° 0 mm 3 mps 758 mmHg 51%
    11:00 +36°C° 0 mm 4 mps 758 mmHg 43%
    12:00 +38°C° 0 mm 4 mps 757 mmHg 34%
    13:00 +37°C° 0 mm 4 mps 756 mmHg 39%
    14:00 +36°C° 0 mm 5 mps 756 mmHg 44%
    15:00 +35°C° 0 mm 5 mps 755 mmHg 49%
    16:00 +33°C° 0 mm 5 mps 755 mmHg 55%
    17:00 +32°C° 0 mm 5 mps 755 mmHg 62%
    18:00 +29°C° 0 mm 5 mps 755 mmHg 68%
    19:00 +29°C° 0 mm 5 mps 756 mmHg 72%
    20:00 +28°C° 0 mm 5 mps 756 mmHg 75%
    21:00 +28°C° 0 mm 4 mps 757 mmHg 78%
    22:00 +27°C° 0 mm 4 mps 757 mmHg 80%
    23:00 +27°C° 0 mm 4 mps 756 mmHg 82%

    29 January, Wednesday

    Time Temperature Precipitation Wind Pressure Humidity
    00:00 +27°C° 0 mm 4 mps 756 mmHg 84%
    01:00 +27°C° 0 mm 4 mps 756 mmHg 85%
    02:00 +26°C° 0 mm 4 mps 755 mmHg 87%
    03:00 +26°C° 0 mm 4 mps 755 mmHg 88%
    04:00 +26°C° 0 mm 3 mps 755 mmHg 90%
    05:00 +25°C° 0 mm 2 mps 756 mmHg 92%
    06:00 +25°C° 0 mm 2 mps 756 mmHg 94%
    07:00 +27°C° 0 mm 1 mps 757 mmHg 82%
    08:00 +30°C° 0 mm 1 mps 757 mmHg 71%
    09:00 +32°C° 0 mm 1 mps 758 mmHg 59%
    10:00 +35°C° 0 mm 2 mps 758 mmHg 51%
    11:00 +37°C° 0 mm 2 mps 757 mmHg 43%
    12:00 +39°C° 0 mm 3 mps 757 mmHg 35%
    13:00 +38°C° 0 mm 4 mps 756 mmHg 41%
    14:00 +37°C° 0 mm 5 mps 755 mmHg 47%
    15:00 +35°C° 0 mm 6 mps 754 mmHg 53%
    16:00 +34°C° 0 mm 5 mps 754 mmHg 60%
    17:00 +32°C° 0 mm 5 mps 754 mmHg 66%
    18:00 +30°C° 0 mm 5 mps 755 mmHg 73%
    19:00 +29°C° 0 mm 4 mps 755 mmHg 77%
    20:00 +28°C° 0 mm 4 mps 756 mmHg 81%
    21:00 +28°C° 0 mm 4 mps 756 mmHg 85%
    22:00 +27°C° 0 mm 4 mps 756 mmHg 87%
    23:00 +27°C° 0 mm 4 mps 756 mmHg 89%

    30 January, Thursday

    Time Temperature Precipitation Wind Pressure Humidity
    00:00 +27°C° 0 mm 4 mps 756 mmHg 90%
    01:00 +26°C° 0 mm 3 mps 756 mmHg 91%
    02:00 +26°C° 0 mm 2 mps 755 mmHg 92%
    03:00 +25°C° 0 mm 1 mps 755 mmHg 93%
    04:00 +25°C° 0 mm 1 mps 756 mmHg 93%
    05:00 +25°C° 0 mm 1 mps 756 mmHg 93%
    06:00 +25°C° 0 mm 1 mps 757 mmHg 94%
    07:00 +27°C° 0 mm 1 mps 757 mmHg 83%
    08:00 +30°C° 0 mm 1 mps 758 mmHg 73%
    09:00 +32°C° 0 mm 1 mps 758 mmHg 62%
    10:00 +35°C° 0 mm 2 mps 758 mmHg 54%
    11:00 +37°C° 0 mm 2 mps 757 mmHg 45%
    12:00 +38°C° 0 mm 3 mps 757 mmHg 36%
    13:00 +37°C° 0 mm 4 mps 756 mmHg 43%
    14:00 +36°C° 0 mm 5 mps 755 mmHg 50%
    15:00 +35°C° 0 mm 6 mps 755 mmHg 57%
    16:00 +33°C° 0 mm 6 mps 755 mmHg 63%
    17:00 +32°C° 0 mm 6 mps 755 mmHg 69%
    18:00 +29°C° 0 mm 6 mps 755 mmHg 75%
    19:00 +29°C° 0 mm 6 mps 756 mmHg 79%
    20:00 +29°C° 0 mm 5 mps 756 mmHg 83%
    21:00 +28°C° 0 mm 5 mps 757 mmHg 86%
    22:00 +28°C° 0 mm 5 mps 757 mmHg 87%
    23:00 +27°C° 0 mm 4 mps 757 mmHg 89%

    31 January, Friday

    Time Temperature Precipitation Wind Pressure Humidity
    00:00 +27°C° 0 mm 4 mps 757 mmHg 90%
    01:00 +27°C° 0 mm 4 mps 757 mmHg 91%
    02:00 +26°C° 0 mm 4 mps 756 mmHg 92%
    03:00 +26°C° 0 mm 4 mps 756 mmHg 93%
    04:00 +26°C° 0 mm 3 mps 756 mmHg 92%
    05:00 +26°C° 0 mm 2 mps 757 mmHg 92%
    06:00 +26°C° 0 mm 2 mps 757 mmHg 91%
    07:00 +28°C° 0 mm 2 mps 758 mmHg 84%
    08:00 +29°C° 0 mm 2 mps 758 mmHg 77%
    09:00 +30°C° 0 mm 2 mps 759 mmHg 70%
    10:00 +31°C° 0 mm 3 mps 759 mmHg 66%
    11:00 +33°C° 0 mm 3 mps 758 mmHg 62%
    12:00 +34°C° 0 mm 3 mps 758 mmHg 58%
    13:00 +34°C° 0 mm 4 mps 757 mmHg 56%
    14:00 +35°C° 0 mm 4 mps 756 mmHg 53%
    15:00 +35°C° 0 mm 5 mps 755 mmHg 51%
    16:00 +34°C° 0 mm 5 mps 756 mmHg 57%
    17:00 +32°C° 0 mm 5 mps 756 mmHg 64%
    18:00 +30°C° 0 mm 5 mps 756 mmHg 70%
    19:00 +29°C° 0 mm 5 mps 756 mmHg 73%
    20:00 +29°C° 0 mm 5 mps 757 mmHg 77%
    21:00 +28°C° 0 mm 5 mps 757 mmHg 81%
    22:00 +28°C° 0 mm 5 mps 757 mmHg 83%
    23:00 +28°C° 0 mm 4 mps 757 mmHg 86%
    Show more